User: anonymous   Login
Location: Unspecified
(0.0000°N, 0.0000°E)
Time: 20:30:58
(UTC+00:00)
Language:

XW-2C - Orbit

View from above orbital plane
View from above orbital plane
View from above satellite
View from above satellite

Ground track
Ground track

The orbit data is extracted from the following two-line orbital elements,

1 40906U 15049H   22268.57420453  .00005301  00000-0  24902-3 0  9997
2 40906  97.4970 271.2627 0014086  18.1129 137.5944 15.19959696388120
Epoch (UTC): 25 September 2022 13:46:51
Eccentricity: 0.0014086
inclination: 97.4970°
perigee height: 496 km
apogee height: 515 km
right ascension of ascending node: 271.2627°
argument of perigee: 18.1129°
revolutions per day: 15.19959696
mean anomaly at epoch: 137.5944°
orbit number at epoch: 38812

The dashed part of the orbit path shows where the satellite is in the earth's shadow,  

DLR